Weather History for KAFF - February, 2014

Change the Weather History Date:

Tuesday, February 11, 2014

  Actual Average Record
Temperature  
Mean Temperature 26 °F -  
Max Temperature 39 °F 41 °F 62 °F (2002)
Min Temperature 12 °F 18 °F 0 °F (2006)
Degree Days  
Heating Degree Days 40    
Moisture  
Dew Point 15 °F    
Average Humidity 61    
Maximum Humidity 90    
Minimum Humidity 35    
Precipitation  
Precipitation 0.00 in - - ()
Sea Level Pressure  
Sea Level Pressure 30.12 in    
Wind  
Wind Speed 7 mph (North)    
Max Wind Speed 14 mph    
Max Gust Speed -    
Visibility 10 miles    
Events      
Averages and records for this station are not official NWS values.
T = Trace of Precipitation, MM = Missing Value Source: NWS Daily Summary

Daily Weather History Graph

Daily Weather History Graph

Search for Another Location

Airport or City:

Trip Planner

Search our weather history database for the weather conditions in past years. The results will help you decide how hot, cold, wet, or windy it might be!

Date:

Astronomy

Feb. 11, 2014 Rise Set
Actual Time 6:55 AM MST 5:32 PM MST
Civil Twilight 6:27 AM MST 5:59 PM MST
Nautical Twilight 5:56 AM MST 6:31 PM MST
Astronomical Twilight 5:25 AM MST 7:02 PM MST
Moon 2:55 PM MST (2/11) 4:33 AM MST (2/11)
Length of Visible Light 11h 32m
Length of Day
10h 36m
Waxing Gibbous, 91% of the Moon is Illuminated
Feb 11
Waxing Gibbous
Feb 14
Full
Feb 22
Last Quarter
Mar 1
New
Mar 8
First Quarter

Hourly Weather History & Observations

Time (MST) Temp. Windchill Dew Point Humidity Pressure Visibility Wind Dir Wind Speed Gust Speed Precip Events Conditions
12:58 AM 21.2 °F 13.6 °F 18.7 °F 90% 30.22 in 10.0 mi North 5.8 mph - N/A   Clear
1:58 AM 19.6 °F 11.7 °F 16.2 °F 87% 30.22 in 10.0 mi North 5.8 mph - N/A   Clear
2:58 AM 18.9 °F 13.7 °F 15.3 °F 86% 30.20 in 10.0 mi NE 3.5 mph - N/A   Clear
3:58 AM 14.7 °F 4.8 °F 11.5 °F 87% 30.21 in 10.0 mi North 6.9 mph - N/A   Clear
4:58 AM 12.7 °F 0.4 °F 8.8 °F 84% 30.20 in 10.0 mi NNW 9.2 mph - N/A   Clear
5:58 AM 13.1 °F 1.8 °F 9.0 °F 84% 30.22 in 10.0 mi North 8.1 mph - N/A   Clear
6:58 AM 12.4 °F -1.6 °F 8.4 °F 84% 30.22 in 10.0 mi North 11.5 mph - N/A   Clear
7:58 AM 18.0 °F 6.9 °F 13.5 °F 83% 30.19 in 10.0 mi North 9.2 mph - N/A   Clear
8:58 AM 25.9 °F 19.2 °F 20.3 °F 79% 30.14 in 10.0 mi North 5.8 mph - N/A   Clear
9:58 AM 34.9 °F 32.0 °F 21.9 °F 59% 30.09 in 10.0 mi SW 3.5 mph - N/A   Clear
10:58 AM 38.5 °F 32.7 °F 18.3 °F 44% 30.08 in 10.0 mi SSE 8.1 mph - N/A   Partly Cloudy
11:58 AM 37.9 °F 32.7 °F 21.2 °F 51% 30.04 in 10.0 mi South 6.9 mph - N/A   Scattered Clouds
12:58 PM 38.3 °F 33.9 °F 19.6 °F 47% 30.02 in 10.0 mi South 5.8 mph - N/A   Scattered Clouds
1:58 PM 36.3 °F 30.1 °F 20.5 °F 53% 30.02 in 10.0 mi South 8.1 mph - N/A   Clear
2:58 PM 37.9 °F 32.7 °F 16.2 °F 41% 29.99 in 10.0 mi South 6.9 mph - N/A   Partly Cloudy
3:58 PM 39.4 °F 34.5 °F 20.3 °F 46% 29.99 in 10.0 mi South 6.9 mph - N/A   Partly Cloudy
4:58 PM 37.0 °F 32.4 °F 23.2 °F 57% 30.05 in 10.0 mi ESE 5.8 mph - N/A   Clear
5:58 PM 34.2 °F 29.0 °F 23.5 °F 65% 30.12 in 10.0 mi North 5.8 mph - N/A   Clear
6:58 PM 28.9 °F 19.2 °F 16.5 °F 60% 30.14 in 10.0 mi NNE 11.5 mph - N/A   Clear
7:58 PM 33.3 °F 25.7 °F 8.4 °F 35% 30.13 in 10.0 mi NNW 9.2 mph - N/A   Clear
8:58 PM 32.2 °F 25.8 °F 7.5 °F 36% 30.10 in 10.0 mi North 6.9 mph - N/A   Clear
9:58 PM 30.4 °F 20.0 °F 9.9 °F 42% 30.07 in 10.0 mi North 13.8 mph - N/A   Clear
10:58 PM 34.0 °F 25.0 °F 9.3 °F 36% 30.06 in 10.0 mi NW 12.7 mph - N/A   Clear
11:58 PM 32.4 °F 23.0 °F 10.2 °F 40% 30.08 in 10.0 mi North 12.7 mph - N/A   Clear